Location: New Canada
(47.1017°N, 68.5042°W)
Time: 12:51:30
(UTC+00:00)

N. Korean satellite - Pass Details

Date: 02 December 2022
Orbit: 407 x 441 km, 97.3° (Epoch: 05 February)

Event Time Altitude Azimuth Distance (km) Brightness Sun altitude
Rises 21:25:43 0° 184° (S) 2,440 10.6 -6.7°
Reaches altitude 10° 21:27:49 10° 193° (SSW) 1,585 9.8 -7.1°
Maximum altitude 21:30:59 37° 262° (W) 740 8.3 -7.6°
Drops below altitude 10° 21:34:16 10° 332° (NNW) 1,627 9.3 -8.1°
Sets 21:36:27 0° 340° (NNW) 2,516 10.2 -8.4°
